Weather History for Charlevoix, MI

Change the Weather History Date:

Saturday, January 15, 2011

  Actual Average Record
Temperature  
Mean Temperature 20 °F -  
Max Temperature 24 °F 28 °F 32 °F (2015)
Min Temperature 15 °F 22 °F -2 °F (2004)
Degree Days  
Heating Degree Days 44    
Moisture  
Dew Point 18 °F    
Average Humidity 83    
Maximum Humidity 100    
Minimum Humidity 68    
Precipitation  
Precipitation 0.00 in - - ()
Sea Level Pressure  
Sea Level Pressure 29.88 in    
Wind  
Wind Speed 12 mph (WNW)    
Max Wind Speed 25 mph    
Max Gust Speed 37 mph    
Visibility 2 miles    
Events Snow    
Averages and records for this station are not official NWS values.
T = Trace of Precipitation, MM = Missing Value Source: NWS Daily Summary

Daily Weather History Graph

Daily Weather History Graph

Search for Another Location

Airport:

Trip Planner

Search our weather history database for the weather conditions in past years. The results will help you decide how hot, cold, wet, or windy it might be!

Date:

Astronomy

Jan. 15, 2011 Rise Set
Actual Time 8:16 AM EST 5:24 PM EST
Civil Twilight 7:43 AM EST 5:57 PM EST
Nautical Twilight 7:07 AM EST 6:34 PM EST
Astronomical Twilight 6:31 AM EST 7:09 PM EST
Moon 1:19 PM EST (1/15) 4:21 AM EST (1/15)
Length of Visible Light 10h 13m
Length of Day
9h 07m
Waxing Gibbous, 80% of the Moon is Illuminated
Jan 15
Waxing Gibbous
Jan 19
Full
Jan 26
Last Quarter
Feb 2
New
Feb 11
First Quarter

Hourly Weather History & Observations

Time (EST) Temp. Windchill Dew Point Humidity Pressure Visibility Wind Dir Wind Speed Gust Speed Precip Events Conditions
12:14 AM 21.2 °F 10.9 °F 19.4 °F 93% 29.99 in 1.2 mi SSE 9.2 mph - N/A Snow Light Snow
12:35 AM 21.2 °F 12.6 °F 19.4 °F 93% 29.97 in 1.2 mi SSE 6.9 mph - N/A Snow Light Snow
12:54 AM 21.2 °F 11.7 °F 19.4 °F 93% 29.96 in 1.2 mi SSE 8.1 mph - N/A Snow Light Snow
1:15 AM 21.2 °F 11.7 °F 19.4 °F 93% 29.94 in 1.0 mi SE 8.1 mph - N/A Snow Light Snow
1:35 AM 21.2 °F 12.6 °F 19.4 °F 93% 29.92 in 0.8 mi SE 6.9 mph - N/A Snow Light Snow
1:54 AM 21.2 °F 12.6 °F 19.4 °F 93% 29.92 in 1.0 mi SE 6.9 mph - N/A Snow Light Snow
2:15 AM 21.2 °F 10.1 °F 19.4 °F 93% 29.89 in 1.0 mi SSE 10.4 mph - N/A Snow Light Snow
2:34 AM 21.2 °F 10.9 °F 19.4 °F 93% 29.89 in 1.2 mi SSE 9.2 mph - N/A Snow Light Snow
2:54 AM 21.2 °F 10.9 °F 19.4 °F 93% 29.88 in 1.2 mi SSE 9.2 mph - N/A Snow Light Snow
3:34 AM 21.2 °F 11.7 °F 19.4 °F 93% 29.85 in 1.0 mi South 8.1 mph - N/A Snow Light Snow
3:54 AM 21.2 °F 11.7 °F 19.4 °F 93% 29.84 in 1.5 mi SSE 8.1 mph - N/A Snow Light Snow
4:14 AM 21.2 °F 14.9 °F 19.4 °F 93% 29.83 in 0.8 mi South 4.6 mph - N/A Snow Snow
4:34 AM 21.2 °F 16.4 °F 19.4 °F 93% 29.81 in 0.2 mi South 3.5 mph - N/A Snow Snow
4:54 AM 21.2 °F 11.7 °F 21.2 °F 100% 29.80 in 0.2 mi SSW 8.1 mph - N/A Snow Heavy Snow
5:14 AM 23.0 °F 18.4 °F 21.2 °F 93% 29.79 in 0.5 mi SW 3.5 mph - N/A Snow Snow
5:34 AM 23.0 °F 12.4 °F 21.2 °F 93% 29.78 in 0.8 mi West 10.4 mph - N/A Snow Light Snow
5:54 AM 24.8 °F 12.9 °F 23.0 °F 93% 29.77 in 0.8 mi WNW 13.8 mph 17.3 mph N/A Snow Light Snow
6:15 AM 23.0 °F 14.7 °F 21.2 °F 93% 29.77 in 1.5 mi WNW 6.9 mph - N/A Snow Light Snow
6:34 AM 23.0 °F 12.4 °F 21.2 °F 93% 29.76 in 0.5 mi WNW 10.4 mph - N/A Snow Snow
6:55 AM 23.0 °F 11.7 °F 21.2 °F 93% 29.76 in 0.8 mi NW 11.5 mph 19.6 mph N/A Snow Light Snow
7:15 AM 23.0 °F 12.4 °F 19.4 °F 86% 29.76 in 2.5 mi WNW 10.4 mph - N/A Snow Light Snow
7:34 AM 23.0 °F 13.1 °F 17.6 °F 80% 29.76 in 4.0 mi WNW 9.2 mph - N/A Snow Light Snow
7:55 AM 23.0 °F 11.7 °F 19.4 °F 86% 29.76 in 5.0 mi WNW 11.5 mph - N/A Snow Light Snow
8:14 AM 23.0 °F 11.7 °F 15.8 °F 74% 29.76 in 10.0 mi West 11.5 mph 16.1 mph N/A   Overcast
8:34 AM 23.0 °F 11.7 °F 17.6 °F 80% 29.76 in 10.0 mi WNW 11.5 mph 18.4 mph N/A   Overcast
8:55 AM 24.8 °F 13.4 °F 19.4 °F 80% 29.77 in 5.0 mi WNW 12.7 mph - N/A Snow Light Snow
9:14 AM 24.8 °F 14.0 °F 21.2 °F 86% 29.78 in 1.5 mi West 11.5 mph - N/A Snow Light Snow
9:34 AM 24.8 °F 15.3 °F 21.2 °F 86% 29.78 in 1.5 mi WNW 9.2 mph - N/A Snow Light Snow
9:55 AM 24.8 °F 15.3 °F 23.0 °F 93% 29.79 in 1.0 mi WNW 9.2 mph - N/A Snow Light Snow
10:14 AM 24.8 °F 11.9 °F 21.2 °F 86% 29.80 in 1.2 mi NW 16.1 mph 21.9 mph N/A Snow Light Snow
10:55 AM 24.8 °F 11.9 °F 19.4 °F 80% 29.83 in 10.0 mi NW 16.1 mph 20.7 mph N/A   Overcast
11:14 AM 24.8 °F 14.6 °F 19.4 °F 80% 29.84 in 10.0 mi NW 10.4 mph 24.2 mph N/A   Overcast
11:34 AM 24.8 °F 11.1 °F 21.2 °F 86% 29.85 in 1.8 mi WNW 18.4 mph 21.9 mph N/A Snow Light Snow
11:54 AM 24.8 °F 11.9 °F 21.2 °F 86% 29.85 in 1.5 mi NW 16.1 mph 27.6 mph N/A Snow Light Snow
12:14 PM 24.8 °F 9.6 °F 21.2 °F 86% 29.85 in 1.2 mi NW 23.0 mph 33.4 mph N/A Snow Light Snow
12:35 PM 24.8 °F 10.3 °F 21.2 °F 86% 29.85 in 2.0 mi NW 20.7 mph 28.8 mph N/A Snow Light Snow
12:54 PM 24.8 °F 10.7 °F 19.4 °F 80% 29.85 in 1.5 mi NW 19.6 mph 36.8 mph N/A Snow Light Snow
1:14 PM 24.8 °F 10.0 °F 19.4 °F 80% 29.86 in 1.8 mi NW 21.9 mph 34.5 mph N/A   Haze
1:35 PM 24.8 °F 9.3 °F 17.6 °F 74% 29.87 in 1.8 mi NW 24.2 mph 35.7 mph N/A   Haze
1:54 PM 24.8 °F 9.3 °F 17.6 °F 74% 29.87 in 1.5 mi NW 24.2 mph 33.4 mph N/A Snow Light Snow
2:15 PM 23.0 °F 6.6 °F 17.6 °F 80% 29.88 in 1.2 mi NW 25.3 mph 34.5 mph N/A Snow Light Snow
2:35 PM 23.0 °F 8.0 °F 15.8 °F 74% 29.90 in 1.5 mi NW 20.7 mph 34.5 mph N/A Snow Light Snow
2:54 PM 23.0 °F 8.3 °F 15.8 °F 74% 29.91 in 1.2 mi NW 19.6 mph 35.7 mph N/A Snow Light Snow
3:15 PM 21.2 °F 4.9 °F 14.0 °F 74% 29.94 in 1.5 mi NW 23.0 mph 34.5 mph N/A Snow Light Snow
3:34 PM 21.2 °F 4.5 °F 14.0 °F 74% 29.95 in 1.2 mi NW 24.2 mph 36.8 mph N/A Snow Light Snow
3:54 PM 21.2 °F 5.6 °F 14.0 °F 74% 29.97 in 2.0 mi NW 20.7 mph 31.1 mph N/A Snow Light Snow
4:15 PM 19.4 °F 2.5 °F 12.2 °F 74% 29.98 in 1.5 mi NW 23.0 mph 34.5 mph N/A Snow Light Snow
4:34 PM 19.4 °F 3.2 °F 12.2 °F 74% 30.00 in 1.8 mi NW 20.7 mph 35.7 mph N/A   Haze
4:54 PM 19.4 °F 2.8 °F 10.4 °F 68% 30.01 in 1.5 mi NNW 21.9 mph 34.5 mph N/A   Haze
5:15 PM 19.4 °F 2.8 °F 10.4 °F 68% 30.02 in 1.8 mi NW 21.9 mph 35.7 mph N/A   Haze
5:34 PM 19.4 °F 1.8 °F 10.4 °F 68% 30.03 in 3.0 mi NW 25.3 mph 33.4 mph N/A Snow Light Snow
5:54 PM 17.6 °F 0.1 °F 10.4 °F 73% 30.05 in 4.0 mi NW 23.0 mph 29.9 mph N/A   Haze
6:15 PM 17.6 °F 2.7 °F 8.6 °F 68% 30.07 in 4.0 mi NW 16.1 mph 29.9 mph N/A   Haze
6:34 PM 17.6 °F 0.9 °F 8.6 °F 68% 30.08 in 4.0 mi NNW 20.7 mph 27.6 mph N/A   Haze
6:53 PM 17.6 °F 1.7 °F 8.6 °F 68% 30.08 in 3.0 mi NW 18.4 mph 28.8 mph N/A   Haze
7:14 PM 15.8 °F -1.5 °F 8.6 °F 73% 30.09 in 1.8 mi NNW 20.7 mph 31.1 mph N/A Snow Light Snow
7:34 PM 15.8 °F -1.5 °F 8.6 °F 73% 30.09 in 2.5 mi NW 20.7 mph 35.7 mph N/A   Haze
7:54 PM 15.8 °F -1.1 °F 8.6 °F 73% 30.10 in 2.5 mi NNW 19.6 mph 32.2 mph N/A   Haze
8:14 PM 15.8 °F -2.3 °F 8.6 °F 73% 30.10 in 3.0 mi NW 23.0 mph 29.9 mph N/A   Haze
8:35 PM 15.8 °F -0.6 °F 8.6 °F 73% 30.12 in 3.0 mi NW 18.4 mph 31.1 mph N/A   Haze
8:54 PM 15.8 °F -1.1 °F 6.8 °F 68% 30.12 in 5.0 mi NNW 19.6 mph 31.1 mph N/A   Haze
9:14 PM 15.8 °F -1.1 °F 6.8 °F 68% 30.12 in 5.0 mi NW 19.6 mph 29.9 mph N/A   Haze
9:35 PM 15.8 °F -1.5 °F 6.8 °F 68% 30.13 in 5.0 mi NW 20.7 mph 29.9 mph N/A   Haze
9:54 PM 15.8 °F -1.1 °F 6.8 °F 68% 30.13 in 10.0 mi NNW 19.6 mph 26.5 mph N/A   Overcast
10:14 PM 15.8 °F -0.2 °F 6.8 °F 68% 30.13 in 7.0 mi NNW 17.3 mph 25.3 mph N/A Snow Light Snow
10:35 PM 15.8 °F 1.4 °F 8.6 °F 73% 30.13 in 4.0 mi NNW 13.8 mph 23.0 mph N/A Snow Light Snow
10:54 PM 15.8 °F 1.4 °F 8.6 °F 73% 30.14 in 4.0 mi NNW 13.8 mph 20.7 mph N/A Snow Light Snow
11:14 PM 15.8 °F -1.1 °F 6.8 °F 68% 30.14 in 5.0 mi NNW 19.6 mph 26.5 mph N/A   Haze
11:35 PM 15.8 °F 1.4 °F 6.8 °F 68% 30.14 in 7.0 mi NW 13.8 mph 23.0 mph N/A   Overcast
11:54 PM 15.8 °F 0.3 °F 6.8 °F 68% 30.14 in 4.0 mi NNW 16.1 mph 26.5 mph N/A   Haze